This is the latest recevied weather packets stored in our database for station/object N5PA. If no packets are shown the sender has not sent any weather packets the latest 10 day(s).
| Time | Temp. | Humidity | Pressure | Rain* | Wind** | Luminosity | Snow |
|---|---|---|---|---|---|---|---|
| 1777656008 | 15.56° C | 47% | 1014.8 hPa | 1.02 mm | - | 1023 W/m² | - |
| 1777655706 | 15.56° C | 46% | 1015 hPa | 1.02 mm | - | 1025 W/m² | - |
| 1777655406 | 15° C | 48% | 1015.3 hPa | 0.76 mm | - | 1027 W/m² | - |
| 1777655106 | 15° C | 50% | 1015.9 hPa | 0.76 mm | - | 1027 W/m² | - |
| 1777654806 | 15° C | 51% | 1016.1 hPa | 0.51 mm | - | 1027 W/m² | - |
| 1777654507 | 15° C | 52% | 1016.1 hPa | 0.51 mm | - | 1023 W/m² | - |
| 1777654207 | 15° C | 50% | 1016 hPa | 0.51 mm | - | 1027 W/m² | - |
| 1777653907 | 15° C | 48% | 1016 hPa | 0.51 mm | - | 1027 W/m² | - |
| 1777653606 | 15° C | 47% | 1015.9 hPa | 0.25 mm | - | 1020 W/m² | - |
| 1777653307 | 15° C | 48% | 1015.7 hPa | 0.25 mm | - | 1027 W/m² | - |
| 1777653006 | 15° C | 48% | 1015.8 hPa | 0.25 mm | - | 1027 W/m² | - |
| 1777652707 | 15° C | 48% | 1016.1 hPa | 0 mm | - | 1027 W/m² | - |
| 1777652406 | 15° C | 48% | 1016.1 hPa | 0 mm | - | 1025 W/m² | - |
| 1777652106 | 15° C | 48% | 1016 hPa | 0 mm | - | 1025 W/m² | - |
| 1777651806 | 15° C | 48% | 1016 hPa | 0.25 mm | - | 1025 W/m² | - |
| 1777651507 | 15.56° C | 48% | 1015.8 hPa | 0.25 mm | - | 1027 W/m² | - |
| 1777650906 | 15.56° C | 48% | 1015.5 hPa | 0.25 mm | - | 1023 W/m² | - |
| 1777650605 | 15.56° C | 48% | 1015.3 hPa | 0.25 mm | - | 1027 W/m² | - |
| 1777650306 | 15.56° C | 48% | 1015 hPa | 0.25 mm | - | 1027 W/m² | - |
| 1777650005 | 15° C | 49% | 1015 hPa | 0.25 mm | - | 1027 W/m² | - |
| 1777649706 | 15° C | 52% | 1015.4 hPa | 0.25 mm | - | 1027 W/m² | - |
| 1777649407 | 15° C | 51% | 1015.5 hPa | 0.25 mm | - | 1025 W/m² | - |
| 1777649106 | 15° C | 50% | 1015.8 hPa | 0.25 mm | - | 1027 W/m² | - |
| 1777648806 | 15° C | 49% | 1015.8 hPa | 0.25 mm | - | 1027 W/m² | - |
| 1777648507 | 15° C | 49% | 1015.4 hPa | 0 mm | - | 1027 W/m² | - |
* Rain latest hour (hover to see other rain measurements)
** Current wind speed in m/s (hover to see current wind gust speed)